Date String (YYYY-MM-DD hh:mm:ss) UTC,Instrument flags,absolute air pressure of the measurement (hPa),sample flow rate (lpm),inlet stack bypass flow (lpm),air temperature of the measurement (°C),ambient temperature measured by the external sensor (°C),aerosol sample conditioner tube jacket temperature (°C),OPC LED temperature (°C),internal box temperature (°C),relative humidity of the measurement (%),span deviation,mass concentration of particles derived from Lorenz-Mie calculation of OPC scattering (μg/m³),mass concentration of particles derived from Lorenz-Mie calculation of OPC scattering (μg/m³),mass concentration of particles derived from Lorenz-Mie calculation of OPC scattering (μg/m³)
DateTimeUTC,F1_M11,P_M11,Q1_M11,Q2_M11,T1_M11,T2_M11,T3_M11,T4_M11,T5_M11,U1_M11,ZSPAN_M11,X2_M11,X0_M11,X1_M11
2023-06-26 06:00:00,SystemResetWarning,0832.5,5.00,000.00,029.9,028.5,000.0,038.3,031.4,29.4,0000.0,0004.56,0013.19,0003.80
2023-06-26 06:01:00,SystemResetWarning,0832.4,5.00,000.00,029.9,028.6,000.0,038.3,031.4,29.2,0000.0,0004.62,0013.77,0003.80
2023-06-26 06:02:00,SystemResetWarning,0832.4,4.98,000.00,029.9,027.6,000.0,038.3,031.5,29.2,0000.0,0004.65,0013.22,0003.81
2023-06-26 06:03:00,SystemResetWarning,0832.4,5.01,000.00,029.9,025.5,000.0,038.3,031.4,29.2,0000.0,0004.67,0013.46,0003.82
2023-06-26 06:04:00,SystemResetWarning,0832.3,5.01,000.00,029.9,024.9,000.0,038.2,031.3,29.2,0000.0,0004.65,0014.40,0003.83
2023-06-26 06:05:00,SystemResetWarning,0832.3,4.99,000.00,029.7,025.2,000.0,038.2,030.9,29.4,0000.0,0004.66,0014.50,0003.84
2023-06-26 06:06:00,SystemResetWarning,0832.3,5.00,000.00,029.6,025.6,000.0,038.2,030.9,29.6,0000.0,0004.67,0014.94,0003.85
2023-06-26 06:07:00,SystemResetWarning,0832.3,5.01,000.00,029.6,026.1,000.0,038.2,030.9,29.6,0000.0,0004.67,0013.87,0003.86
2023-06-26 06:08:00,SystemResetWarning,0832.3,5.00,000.00,029.6,026.5,000.0,038.2,030.9,29.6,0000.0,0004.72,0014.05,0003.87
2023-06-26 06:09:00,SystemResetWarning,0832.3,5.00,000.00,029.6,026.9,000.0,038.2,031.0,29.6,0000.0,0004.77,0013.85,0003.88
2023-06-26 06:10:00,SystemResetWarning,0832.3,5.00,000.00,029.6,027.2,000.0,038.2,031.0,29.6,0000.0,0004.82,0013.28,0003.89
2023-06-26 06:11:00,SystemResetWarning,0832.3,5.00,000.00,029.6,027.4,000.0,038.2,031.1,29.6,0000.0,0004.85,0013.18,0003.90
2023-06-26 06:12:00,SystemResetWarning,0832.3,4.99,000.00,029.6,027.6,000.0,038.2,031.1,29.5,0000.0,0004.83,0012.45,0003.90
2023-06-26 06:13:00,SystemResetWarning,0832.3,5.00,000.00,029.7,027.8,000.0,038.2,031.2,29.5,0000.0,0004.84,0012.68,0003.91
2023-06-26 06:14:00,SystemResetWarning,0832.3,5.00,000.00,029.7,028.0,000.0,038.2,031.2,29.4,0000.0,0004.86,0012.25,0003.91
2023-06-26 06:15:00,SystemResetWarning,0832.3,5.00,000.00,029.7,028.1,000.0,038.2,031.2,29.4,0000.0,0004.88,0011.48,0003.91
2023-06-26 06:16:00,SystemResetWarning,0832.3,5.01,000.00,029.7,028.2,000.0,038.2,031.3,29.3,0000.0,0004.90,0011.89,0003.92
2023-06-26 06:17:00,SystemResetWarning,0832.3,5.01,000.00,029.8,028.3,000.0,038.3,031.3,29.3,0000.0,0004.97,0012.41,0003.92
2023-06-26 06:18:00,SystemResetWarning,0832.3,4.99,000.00,029.8,028.3,000.0,038.3,031.3,29.2,0000.0,0004.96,0013.12,0003.92
2023-06-26 06:19:00,SystemResetWarning,0832.3,4.99,000.00,029.8,028.4,000.0,038.3,031.4,29.1,0000.0,0004.88,0013.02,0003.92
2023-06-26 06:20:00,SystemResetWarning,0832.3,5.01,000.00,029.9,028.5,000.0,038.3,031.4,29.0,0000.0,0004.84,0012.84,0003.92
2023-06-26 06:21:00,SystemResetWarning,0832.3,5.01,000.00,029.9,028.5,000.0,038.3,031.5,29.0,0000.0,0004.82,0012.60,0003.93
2023-06-26 06:22:00,SystemResetWarning,0832.3,5.00,000.00,029.9,028.6,000.0,038.4,031.5,28.9,0000.0,0004.82,0013.32,0003.94
2023-06-26 06:23:00,SystemResetWarning,0832.3,4.99,000.00,029.9,028.2,000.0,038.4,031.5,28.9,0000.0,0004.82,0013.38,0003.95
2023-06-26 06:24:00,SystemResetWarning,0832.3,4.99,000.00,029.9,026.0,000.0,038.3,031.5,29.1,0000.0,0004.85,0013.34,0003.95
2023-06-26 06:25:00,SystemResetWarning,0832.3,5.01,000.00,029.9,024.9,000.0,038.3,031.5,29.2,0000.0,0004.84,0013.98,0003.95
2023-06-26 06:26:00,SystemResetWarning,0832.3,5.01,000.00,029.8,025.0,000.0,038.2,031.1,29.7,0000.0,0004.82,0014.05,0003.95
2023-06-26 06:27:00,SystemResetWarning,0832.3,4.99,000.00,029.7,025.4,000.0,038.2,031.0,30.0,0000.0,0004.85,0013.83,0003.96
2023-06-26 06:28:00,SystemResetWarning,0832.3,5.01,000.00,029.7,025.9,000.0,038.2,031.0,30.5,0000.0,0004.79,0013.19,0003.96
2023-06-26 06:29:00,SystemResetWarning,0832.3,4.99,000.00,029.7,026.3,000.0,038.2,031.0,30.6,0000.0,0004.78,0012.29,0003.97
2023-06-26 06:30:00,SystemResetWarning,0832.3,4.99,000.00,029.7,026.7,000.0,038.2,031.1,30.7,0000.0,0004.84,0012.11,0003.98
2023-06-26 06:31:00,SystemResetWarning,0832.3,5.00,000.00,029.7,027.0,000.0,038.2,031.1,30.8,0000.7,0004.90,0012.24,0004.00
2023-06-26 06:32:00,SystemResetWarning,0832.3,5.01,000.00,029.7,027.3,000.0,038.2,031.1,31.3,0003.2,0004.91,0012.23,0004.00
2023-06-26 06:33:00,SystemResetWarning,0832.2,5.01,000.00,029.7,027.5,000.0,038.2,031.1,31.2,0002.6,0004.95,0011.86,0004.00
2023-06-26 06:34:00,SystemResetWarning,0832.2,4.99,000.00,029.7,027.7,000.0,038.2,031.1,31.2,0000.9,0004.96,0012.21,0003.99
2023-06-26 06:35:00,SystemResetWarning,0832.2,4.99,000.00,029.7,027.8,000.0,038.2,031.2,31.2,0000.6,0004.96,0013.11,0004.00
2023-06-26 06:36:00,SystemResetWarning,0832.2,5.01,000.00,029.7,028.0,000.0,038.2,031.2,31.3,0002.8,0005.00,0012.38,0004.00
2023-06-26 06:37:00,SystemResetWarning,0832.2,5.01,000.00,029.7,028.1,000.0,038.3,031.3,31.4,0001.1,0005.03,0012.05,0004.01
2023-06-26 06:38:00,SystemResetWarning,0832.2,4.99,000.00,029.8,028.2,000.0,038.3,031.3,31.4,0000.0,0005.06,0011.94,0004.02
2023-06-26 06:39:00,SystemResetWarning,0832.2,4.99,000.00,029.8,028.3,000.0,038.3,031.3,31.3,0000.0,0005.10,0012.37,0004.03
2023-06-26 06:40:00,SystemResetWarning,0832.3,5.01,000.00,029.8,028.3,000.0,038.3,031.4,31.2,0000.0,0005.17,0013.63,0004.05
2023-06-26 06:41:00,SystemResetWarning,0832.2,5.01,000.00,029.8,028.4,000.0,038.3,031.4,31.2,0000.0,0005.18,0014.12,0004.06
2023-06-26 06:42:00,SystemResetWarning,0832.2,5.00,000.00,029.9,028.4,000.0,038.3,031.4,31.1,0000.0,0005.17,0014.16,0004.06
2023-06-26 06:43:00,SystemResetWarning,0832.2,5.00,000.00,029.9,028.5,000.0,038.4,031.4,31.0,0000.0,0005.20,0014.20,0004.07
2023-06-26 06:44:00,SystemResetWarning,0832.2,4.99,000.00,029.9,028.5,000.0,038.4,031.4,30.9,0000.0,0005.18,0013.82,0004.08
2023-06-26 06:45:00,SystemResetWarning,0832.2,5.00,000.00,029.9,028.6,000.0,038.4,031.5,30.8,0000.0,0005.20,0013.95,0004.09
2023-06-26 06:46:00,SystemResetWarning,0832.2,5.00,000.00,030.0,028.6,000.0,038.4,031.5,30.7,0000.0,0005.21,0013.79,0004.10
2023-06-26 06:47:00,SystemResetWarning,0832.2,5.00,000.00,030.0,028.6,000.0,038.4,031.5,30.6,0000.0,0005.17,0013.66,0004.11
2023-06-26 06:48:00,SystemResetWarning,0832.2,5.00,000.00,030.0,028.3,000.0,038.4,031.6,30.6,0000.0,0005.16,0014.02,0004.11
2023-06-26 06:49:00,SystemResetWarning,0832.1,5.00,000.00,030.0,026.1,000.0,038.4,031.6,30.6,0000.0,0005.12,0014.58,0004.12
2023-06-26 06:50:00,SystemResetWarning,0832.2,5.01,000.00,030.0,024.9,000.0,038.3,031.5,30.6,0000.0,0005.13,0013.77,0004.13
2023-06-26 06:51:00,SystemResetWarning,0832.2,5.01,000.00,029.9,024.9,000.0,038.3,031.1,30.7,0000.0,0005.06,0012.47,0004.13
2023-06-26 06:52:00,SystemResetWarning,0832.2,5.00,000.00,029.7,025.3,000.0,038.3,031.0,30.8,0000.0,0005.04,0011.95,0004.12
2023-06-26 06:53:00,SystemResetWarning,0832.2,5.00,000.00,029.7,025.8,000.0,038.3,031.0,30.8,0000.0,0005.03,0011.87,0004.12
2023-06-26 06:54:00,SystemResetWarning,0832.2,5.00,000.00,029.7,026.2,000.0,038.3,031.0,30.8,0003.6,0005.03,0012.29,0004.12
2023-06-26 06:55:00,SystemResetWarning,0832.1,4.99,000.00,029.7,026.6,000.0,038.3,031.0,30.7,0003.7,0005.08,0013.47,0004.14
2023-06-26 06:56:00,SystemResetWarning,0832.2,5.00,000.00,029.7,027.0,000.0,038.3,031.0,30.6,0003.7,0005.11,0013.44,0004.16
2023-06-26 06:57:00,SystemResetWarning,0832.2,5.00,000.00,029.7,027.2,000.0,038.3,031.1,30.5,0003.6,0005.12,0013.11,0004.17
2023-06-26 06:58:00,SystemResetWarning,0832.1,5.01,000.00,029.7,027.5,000.0,038.3,031.1,30.4,0002.1,0005.18,0013.03,0004.21
2023-06-26 06:59:00,SystemResetWarning,0832.1,5.00,000.00,029.7,027.7,000.0,038.3,031.1,30.3,0000.0,0005.22,0012.75,0004.25
